Location: �quirre
(50.4736°N, 2.2351°E)
Time: 05:25:11
(UTC+00:00)

Cosmos 1544 - Pass Details

Date: 07 August 2020
Orbit: 472 x 491 km, 82.5° (Epoch: 19 September)

Event Time Altitude Azimuth Distance (km) Brightness Sun altitude
Exits shadow 00:45:39 40° 294° (WNW) 733 4.0 -22.3°
Drops below altitude 10° 00:48:59 10° 357° (N) 1,684 6.8 -22.2°
Sets 00:51:12 0° 5° (N) 2,573 8.2 -22.1°
